"startDT [UTC]","vpos","CH4 [ppm]","stdev(CH4) [ppm]","CO2 [ppm]","stdev(CO2) [ppm]","H2O_reported [%]","stdev(H2O_reported)","CavityPressure [torr]","CavityTemp [C]","OutletValve","CH4_dry [ppm]","CO2_dry [ppm]","DasTemp [C]","EtalonTemp [C]","WarmBoxTemp [C]","MPVPosition","T_ECpre [C]","T_EC1 [C]","T_EC2 [C]","p_inlet [hPa]","p_in [hPa]","p_out [hPa]","T_inlet [C]","RH_inlet [%]","dwpt_inlet [C]","T_vent [C]","RH_vent [%]","dwpt_vent [C]","flow_vent [l min-1]","flow_inlet [l min-1]","dwpt_sample [C]","T_room [C]"
2015-03-02 00:00:00,3.0,1.88503,0.02421,399.881,2.904,0.0150,0.0176,139.810,45.000,31345.52699,1.88823,400.133,33.062,45.068,45.000,0.00,0.09,-272.70,-272.75,-1,505,-1,19.7,1.8,-32.0,20.0,1.9,-31.5,5.73,1.94,-22.2,26.2
2015-03-02 00:01:00,3.0,1.87619,0.00028,397.227,0.057,0.0044,0.0022,139.994,45.000,31170.13881,1.87626,397.253,33.055,45.068,45.000,0.00,0.09,-272.71,-272.76,-1,506,-1,19.7,1.8,-32.1,20.0,1.9,-31.6,5.73,1.95,-22.2,26.2
2015-03-02 00:02:00,3.0,1.87596,0.00046,397.255,0.070,0.0040,0.0016,139.996,45.000,31117.93588,1.87607,397.270,33.030,45.068,45.000,0.00,0.09,-272.71,-272.76,-1,506,-1,19.7,1.8,-32.1,20.0,1.8,-31.7,5.73,1.96,-22.2,26.2
2015-03-02 00:03:00,3.0,1.87592,0.00027,397.494,0.057,0.0030,0.0016,139.999,45.000,31077.58111,1.87595,397.505,33.010,45.068,45.000,0.00,0.09,-272.70,-272.75,-1,506,-1,19.7,1.8,-32.2,20.0,1.8,-31.7,5.73,1.98,-22.2,26.3
2015-03-02 00:04:00,3.0,1.87598,0.00031,397.585,0.022,0.0032,0.0017,139.997,45.000,31043.87398,1.87605,397.598,33.033,45.068,45.001,0.00,0.09,-272.70,-272.76,-1,506,-1,19.7,1.8,-32.2,20.0,1.8,-31.7,5.73,2.00,-22.2,26.3
2015-03-02 00:05:00,3.0,1.87571,0.00029,397.598,0.033,0.0016,0.0019,139.999,45.000,31016.09593,1.87574,397.607,33.044,45.068,45.000,0.00,0.09,-272.70,-272.76,-1,506,-1,19.8,1.8,-32.1,20.0,1.8,-31.7,5.73,2.01,-22.2,26.3
2015-03-02 00:06:00,3.0,1.87597,0.00027,397.621,0.030,0.0023,0.0021,139.997,45.000,30991.15072,1.87600,397.632,33.063,45.068,45.000,0.00,0.09,-272.70,-272.75,-1,506,-1,19.8,1.8,-32.1,20.1,1.8,-31.6,5.73,2.02,-22.2,26.4
2015-03-02 00:07:00,3.0,1.87586,0.00036,397.598,0.027,0.0020,0.0018,139.999,45.000,30970.80499,1.87592,397.608,33.078,45.068,45.000,0.00,0.09,-272.70,-272.75,-1,506,-1,19.8,1.8,-32.1,20.1,1.8,-31.6,5.73,2.02,-22.2,26.4
2015-03-02 00:08:00,3.0,1.87600,0.00029,397.615,0.039,0.0009,0.0015,139.999,45.000,30952.92726,1.87603,397.619,33.116,45.068,45.000,0.00,0.09,-272.70,-272.76,-1,506,-1,19.9,1.8,-32.1,20.1,1.8,-31.6,5.73,2.01,-22.2,26.4
2015-03-02 00:09:00,3.0,1.87602,0.00025,397.625,0.026,-0.0004,0.0015,140.001,45.000,30941.63098,1.87600,397.622,33.096,45.068,45.000,0.00,0.09,-272.70,-272.76,-1,507,-1,19.9,1.8,-32.0,20.2,1.8,-31.6,5.73,1.98,-22.2,26.4
2015-03-02 00:10:00,3.0,1.87606,0.00035,397.610,0.029,0.0007,0.0025,139.999,45.000,30930.85019,1.87607,397.614,33.071,45.067,45.000,0.00,0.09,-272.69,-272.75,-1,507,-1,19.9,1.8,-32.0,20.2,1.8,-31.6,5.73,1.97,-22.2,26.4
2015-03-02 00:11:00,3.0,1.87597,0.00032,397.623,0.037,0.0008,0.0020,140.001,45.000,30923.06973,1.87599,397.627,33.064,45.067,45.000,0.00,0.09,-272.70,-272.76,-1,507,-1,20.0,1.8,-32.2,20.2,1.8,-31.7,5.73,1.96,-22.1,26.5
2015-03-02 00:12:00,3.0,1.87596,0.00041,397.592,0.045,0.0004,0.0012,139.998,45.000,30911.15596,1.87600,397.593,33.062,45.068,45.000,0.00,0.09,-272.70,-272.76,-1,507,-1,20.0,1.8,-32.1,20.2,1.8,-31.7,5.73,1.95,-22.1,26.5
2015-03-02 00:13:00,3.0,1.87595,0.00039,397.614,0.039,0.0002,0.0015,139.999,45.000,30905.20817,1.87595,397.616,33.063,45.068,45.000,0.00,0.09,-272.70,-272.75,-1,507,-1,20.1,1.7,-32.2,20.3,1.8,-31.7,5.73,1.96,-22.1,26.6
2015-03-02 00:14:00,3.0,1.87574,0.00031,397.605,0.029,0.0012,0.0021,139.998,45.000,30903.66434,1.87575,397.609,33.065,45.068,45.000,0.00,0.09,-272.71,-272.76,-2,507,-1,20.1,1.7,-32.2,20.3,1.8,-31.8,5.73,1.97,-22.1,26.6
2015-03-02 00:15:00,3.0,1.87596,0.00035,397.603,0.028,0.0001,0.0019,139.998,45.000,30898.77326,1.87593,397.603,33.075,45.068,45.000,0.00,0.09,-272.71,-272.76,-1,508,-1,20.2,1.7,-32.2,20.3,1.8,-31.8,5.73,1.99,-22.1,26.6
2015-03-02 00:16:00,3.0,1.87586,0.00046,397.625,0.029,0.0002,0.0021,139.998,45.000,30895.37693,1.87591,397.626,33.069,45.068,45.000,0.00,0.09,-272.70,-272.75,-1,508,-1,20.2,1.7,-32.3,20.4,1.8,-31.7,5.73,2.01,-22.1,26.7
2015-03-02 00:17:00,3.0,1.87579,0.00033,397.629,0.026,-0.0002,0.0017,139.997,45.000,30891.83286,1.87580,397.627,33.099,45.068,45.000,0.00,0.09,-272.70,-272.75,-1,508,-1,20.3,1.7,-32.3,20.4,1.8,-31.9,5.73,2.02,-22.1,26.7
2015-03-02 00:18:00,3.0,1.87603,0.00029,397.633,0.021,-0.0002,0.0017,140.003,45.000,30891.64072,1.87599,397.632,33.115,45.068,45.000,0.00,0.09,-272.70,-272.76,-1,508,-1,20.3,1.7,-32.3,20.5,1.8,-31.9,5.73,2.02,-22.1,26.7
2015-03-02 00:19:00,3.0,1.87604,0.00032,397.643,0.027,-0.0001,0.0019,140.003,45.000,30890.11069,1.87602,397.642,33.122,45.068,45.000,0.00,0.09,-272.70,-272.75,-1,508,-1,20.3,1.7,-32.4,20.5,1.8,-31.8,5.73,2.00,-22.1,26.8
2015-03-02 00:20:00,0.0,1.94779,0.01389,405.484,2.484,0.0407,0.0142,140.222,45.000,33796.27736,1.94525,405.483,33.106,45.068,45.000,0.00,0.09,-272.70,-272.75,-2,970,-1,20.4,1.7,-32.4,20.5,1.8,-31.8,5.73,2.06,-22.0,26.8
2015-03-02 00:21:00,0.0,1.95225,0.00039,406.444,0.035,0.0481,0.0013,140.004,45.000,33915.54557,1.95318,406.680,33.096,45.068,45.000,0.00,0.09,-272.70,-272.76,-2,971,-1,20.4,1.7,-32.4,20.6,1.8,-31.8,5.73,2.01,-22.1,26.8
2015-03-02 00:22:00,0.0,1.95220,0.00035,406.469,0.031,0.0491,0.0017,140.006,45.000,33973.13817,1.95314,406.709,33.077,45.068,45.000,0.00,0.09,-272.70,-272.76,-2,972,-2,20.4,1.7,-32.4,20.6,1.7,-31.8,5.73,2.01,-22.0,26.8
2015-03-02 00:23:00,0.0,1.95223,0.00040,406.476,0.026,0.0485,0.0018,140.002,45.000,34018.90177,1.95314,406.713,33.066,45.068,45.000,0.00,0.09,-272.70,-272.75,-2,972,-1,20.5,1.7,-32.4,20.6,1.7,-31.8,5.73,2.00,-22.0,26.8
2015-03-02 00:24:00,0.0,1.95217,0.00057,406.468,0.024,0.0475,0.0020,140.002,45.000,34053.64339,1.95313,406.701,33.070,45.068,45.001,0.00,0.09,-272.70,-272.75,-2,972,-2,20.5,1.7,-32.4,20.7,1.7,-31.9,5.73,1.99,-22.0,26.8
2015-03-02 00:25:00,0.0,1.95241,0.00034,406.456,0.042,0.0491,0.0020,140.004,45.000,34080.78251,1.95333,406.696,33.080,45.068,45.001,0.00,0.09,-272.70,-272.76,-2,973,-2,20.5,1.6,-32.5,20.7,1.7,-31.9,5.73,1.99,-22.0,26.9
2015-03-02 00:26:00,0.0,1.95221,0.00030,406.479,0.026,0.0487,0.0017,140.000,45.000,34104.93681,1.95314,406.717,33.069,45.068,45.000,0.00,0.09,-272.70,-272.75,-2,973,-2,20.5,1.6,-32.5,20.7,1.7,-31.9,5.73,1.99,-22.0,26.8
2015-03-02 00:27:00,0.0,1.95222,0.00051,406.469,0.033,0.0489,0.0017,140.002,45.000,34130.24783,1.95317,406.707,33.065,45.068,45.000,0.00,0.09,-272.70,-272.75,-2,973,-2,20.6,1.7,-32.3,20.7,1.7,-31.9,5.73,1.99,-22.0,26.8
2015-03-02 00:28:00,0.0,1.95211,0.00037,406.472,0.033,0.0498,0.0015,139.998,45.000,34145.52985,1.95307,406.716,33.066,45.068,45.000,0.00,0.09,-272.70,-272.76,-2,973,-2,20.6,1.7,-32.4,20.7,1.7,-31.8,5.73,1.99,-22.0,26.9
2015-03-02 00:29:00,0.0,1.95195,0.00041,406.462,0.029,0.0502,0.0014,140.002,45.000,34162.63181,1.95293,406.706,33.108,45.068,45.000,0.00,0.09,-272.70,-272.76,-2,973,-2,20.6,1.7,-32.2,20.7,1.8,-31.7,5.73,1.99,-22.0,26.9
2015-03-02 00:30:00,0.0,1.95190,0.00045,406.486,0.032,0.0510,0.0015,140.001,45.000,34174.63436,1.95288,406.735,33.129,45.068,45.000,0.00,0.09,-272.70,-272.75,-2,973,-2,20.6,1.7,-32.1,20.7,1.8,-31.6,5.73,1.99,-22.0,26.9
2015-03-02 00:31:00,0.0,1.95202,0.00030,406.465,0.034,0.0516,0.0019,140.002,45.000,34186.07779,1.95300,406.718,33.172,45.068,45.000,0.00,0.09,-272.70,-272.75,-2,974,-2,20.6,1.7,-32.0,20.7,1.8,-31.5,5.73,2.00,-21.9,26.9
2015-03-02 00:32:00,0.0,1.95190,0.00028,406.473,0.029,0.0505,0.0014,140.003,45.000,34196.14558,1.95285,406.719,33.187,45.067,44.999,0.00,0.09,-272.70,-272.76,-2,973,-2,20.6,1.7,-32.0,20.8,1.8,-31.5,5.73,2.00,-21.9,26.9
2015-03-02 00:33:00,0.0,1.95184,0.00034,406.446,0.027,0.0520,0.0015,140.000,45.000,34204.77331,1.95286,406.699,33.188,45.067,44.999,0.00,0.09,-272.70,-272.75,-2,973,-2,20.6,1.8,-31.8,20.7,1.8,-31.4,5.73,2.01,-21.9,26.8
2015-03-02 00:34:00,0.0,1.95174,0.00031,406.461,0.032,0.0522,0.0026,140.001,45.000,34212.52966,1.95275,406.717,33.199,45.067,45.000,0.00,0.09,-272.70,-272.75,-2,973,-2,20.6,1.7,-31.8,20.7,1.8,-31.4,5.73,2.01,-21.9,26.8
2015-03-02 00:35:00,0.0,1.95164,0.00024,406.436,0.027,0.0519,0.0012,139.999,45.000,34220.50516,1.95265,406.691,33.220,45.067,44.999,0.00,0.09,-272.70,-272.76,-2,974,-2,20.6,1.8,-31.7,20.8,1.8,-31.2,5.73,2.01,-21.9,26.9
2015-03-02 00:36:00,0.0,1.95168,0.00049,406.449,0.029,0.0517,0.0014,139.999,45.000,34225.90018,1.95266,406.701,33.214,45.067,45.000,0.00,0.09,-272.69,-272.76,-2,974,-2,20.6,1.8,-31.7,20.8,1.8,-31.2,5.73,2.01,-21.9,26.9
2015-03-02 00:37:00,0.0,1.95157,0.00030,406.449,0.038,0.0520,0.0016,139.997,45.000,34228.50603,1.95258,406.703,33.230,45.068,45.000,0.00,0.09,-272.69,-272.75,-2,974,-2,20.6,1.8,-31.7,20.8,1.8,-31.2,5.73,2.01,-21.9,26.9
2015-03-02 00:38:00,0.0,1.95132,0.00049,406.445,0.040,0.0524,0.0013,140.001,45.000,34236.49614,1.95233,406.701,33.224,45.068,45.000,0.00,0.09,-272.70,-272.76,-2,974,-2,20.5,1.8,-31.7,20.8,1.8,-31.2,5.73,2.01,-21.9,26.9
2015-03-02 00:39:00,0.0,1.95139,0.00045,406.456,0.036,0.0528,0.0016,140.003,45.000,34240.91223,1.95241,406.714,33.210,45.068,45.000,0.00,0.09,-272.70,-272.76,-2,974,-2,20.6,1.8,-31.5,20.8,1.8,-31.2,5.73,2.02,-21.9,26.9
2015-03-02 00:40:00,0.0,1.95130,0.00036,406.439,0.027,0.0541,0.0013,140.001,45.000,34243.90811,1.95232,406.702,33.200,45.068,45.000,0.00,0.09,-272.70,-272.75,-2,974,-2,20.5,1.8,-31.5,20.8,1.9,-31.1,5.73,2.01,-21.9,26.8
2015-03-02 00:41:00,0.0,1.95187,0.00029,406.440,0.025,0.0541,0.0018,139.996,45.000,34242.60397,1.95289,406.704,33.194,45.068,45.000,0.00,0.09,-272.70,-272.75,-2,974,-2,20.5,1.8,-31.4,20.8,1.9,-31.0,5.73,2.02,-21.9,26.8
2015-03-02 00:42:00,0.0,1.95174,0.00033,406.465,0.046,0.0536,0.0021,140.002,45.000,34249.10101,1.95276,406.725,33.192,45.068,45.000,0.00,0.09,-272.71,-272.76,-2,974,-2,20.5,1.8,-31.6,20.8,1.9,-31.0,5.73,2.01,-21.9,26.9
2015-03-02 00:43:00,0.0,1.95171,0.00034,406.450,0.025,0.0529,0.0019,140.003,45.000,34251.25126,1.95273,406.711,33.196,45.068,45.000,0.00,0.09,-272.70,-272.75,-2,974,-2,20.5,1.8,-31.6,20.8,1.9,-31.1,5.73,2.02,-21.9,26.9
2015-03-02 00:44:00,0.0,1.95166,0.00038,406.436,0.036,0.0524,0.0014,140.001,45.000,34252.43531,1.95265,406.692,33.213,45.068,45.000,0.00,0.09,-272.70,-272.75,-2,974,-2,20.5,1.8,-31.6,20.7,1.8,-31.2,5.73,2.01,-21.8,26.9
2015-03-02 00:45:00,0.0,1.95169,0.00033,406.456,0.029,0.0518,0.0018,139.999,45.000,34252.61005,1.95269,406.706,33.248,45.068,45.000,0.00,0.09,-272.70,-272.76,-2,974,-2,20.5,1.8,-31.8,20.8,1.8,-31.2,5.73,2.01,-21.8,26.9
2015-03-02 00:46:00,0.0,1.95172,0.00049,406.453,0.028,0.0524,0.0019,139.999,45.000,34253.29478,1.95273,406.709,33.259,45.068,45.000,0.00,0.09,-272.70,-272.75,-2,974,-2,20.5,1.8,-31.7,20.8,1.9,-31.1,5.73,2.01,-21.8,26.8
2015-03-02 00:47:00,0.0,1.95188,0.00039,406.482,0.026,0.0525,0.0018,140.001,45.000,34253.74877,1.95287,406.739,33.277,45.068,45.000,0.00,0.09,-272.69,-272.75,-2,974,-2,20.5,1.8,-31.7,20.8,1.8,-31.2,5.73,2.00,-21.8,26.8
2015-03-02 00:48:00,0.0,1.95195,0.00035,406.439,0.029,0.0536,0.0018,139.999,45.000,34255.30346,1.95298,406.702,33.310,45.068,45.000,0.00,0.09,-272.70,-272.76,-2,974,-2,20.4,1.8,-31.6,20.7,1.8,-31.3,5.73,2.00,-21.8,26.8
2015-03-02 00:49:00,0.0,1.95193,0.00032,406.444,0.030,0.0528,0.0021,140.002,45.000,34258.22588,1.95295,406.701,33.308,45.067,44.999,0.00,0.09,-272.70,-272.76,-2,974,-2,20.4,1.8,-31.6,20.7,1.8,-31.3,5.73,2.00,-21.8,26.9
2015-03-02 00:50:00,0.0,1.95225,0.00035,406.473,0.038,0.0526,0.0015,140.000,45.000,34256.64367,1.95325,406.730,33.312,45.067,45.000,0.00,0.09,-272.69,-272.75,-2,973,-2,20.4,1.8,-31.7,20.7,1.8,-31.2,5.73,2.00,-21.8,26.9
2015-03-02 00:51:00,0.0,1.95203,0.00032,406.430,0.027,0.0532,0.0015,140.000,45.000,34260.71985,1.95304,406.690,33.314,45.067,45.000,0.00,0.09,-272.70,-272.76,-2,974,-2,20.4,1.8,-31.7,20.7,1.8,-31.2,5.73,2.00,-21.8,26.9
2015-03-02 00:52:00,0.0,1.95148,0.00050,406.447,0.036,0.0532,0.0016,140.000,45.000,34260.67176,1.95251,406.708,33.320,45.067,45.000,0.00,0.09,-272.70,-272.76,-3,974,-2,20.4,1.8,-31.6,20.8,1.8,-31.2,5.73,2.00,-21.8,26.9
2015-03-02 00:53:00,0.0,1.95152,0.00039,406.439,0.037,0.0540,0.0017,140.001,45.000,34261.53129,1.95256,406.702,33.322,45.068,45.000,0.00,0.09,-272.70,-272.75,-2,974,-3,20.4,1.8,-31.6,20.7,1.9,-31.1,5.73,1.99,-21.8,26.8
2015-03-02 00:54:00,0.0,1.95171,0.00040,406.446,0.024,0.0539,0.0016,140.000,45.000,34259.89346,1.95274,406.708,33.314,45.068,45.000,0.00,0.09,-272.69,-272.75,-1,973,-2,20.4,1.8,-31.5,20.7,1.9,-31.1,5.73,2.00,-21.8,26.8
2015-03-02 00:55:00,0.0,1.95193,0.00064,406.452,0.030,0.0532,0.0016,140.001,45.000,34260.26258,1.95298,406.713,33.318,45.068,45.000,0.00,0.09,-272.70,-272.75,-1,974,-1,20.4,1.8,-31.6,20.7,1.9,-31.1,5.73,1.99,-21.8,26.9
2015-03-02 00:56:00,0.0,1.95166,0.00056,406.450,0.041,0.0532,0.0020,140.000,45.000,34262.04541,1.95269,406.711,33.333,45.068,45.000,0.00,0.09,-272.70,-272.76,-3,974,-2,20.4,1.8,-31.6,20.7,1.9,-31.1,5.73,1.99,-21.8,26.9
2015-03-02 00:57:00,0.0,1.95178,0.00052,406.448,0.027,0.0537,0.0019,139.998,45.000,34261.51683,1.95276,406.708,33.361,45.068,45.000,0.00,0.09,-272.69,-272.75,-2,973,-4,20.4,1.8,-31.6,20.7,1.8,-31.2,5.73,1.99,-21.8,26.9
2015-03-02 00:58:00,0.0,1.95184,0.00036,406.452,0.030,0.0532,0.0016,139.998,45.000,34260.48847,1.95289,406.714,33.374,45.068,45.000,0.00,0.09,-272.70,-272.76,-2,973,-4,20.4,1.8,-31.6,20.7,1.8,-31.3,5.73,2.00,-21.7,26.9
2015-03-02 00:59:00,0.0,1.95152,0.00048,406.439,0.036,0.0523,0.0017,139.996,45.000,34262.90005,1.95252,406.696,33.373,45.068,45.000,0.00,0.09,-272.70,-272.76,-2,975,-5,20.4,1.8,-31.7,20.7,1.8,-31.3,5.73,1.99,-21.7,26.8
2015-03-02 01:00:00,0.0,1.95178,0.00041,406.423,0.036,0.0524,0.0019,140.000,45.000,34264.90033,1.95279,406.678,33.375,45.068,45.000,0.00,0.09,-272.70,-272.75,-2,976,-3,20.4,1.8,-31.8,20.7,1.8,-31.2,5.73,2.00,-21.7,26.8
2015-03-02 01:01:00,0.0,1.95134,0.00043,406.436,0.033,0.0523,0.0016,139.999,45.000,34264.64096,1.95237,406.692,33.375,45.068,45.000,0.00,0.09,-272.69,-272.75,-3,974,-4,20.4,1.8,-31.8,20.7,1.8,-31.3,5.73,2.00,-21.7,26.8
2015-03-02 01:02:00,0.0,1.95146,0.00061,406.427,0.037,0.0530,0.0021,139.999,45.000,34264.45589,1.95241,406.685,33.361,45.068,45.000,0.00,0.09,-272.70,-272.76,-1,974,1,20.4,1.8,-31.8,20.7,1.8,-31.3,5.73,2.00,-21.7,26.9
2015-03-02 01:03:00,0.0,1.95182,0.00042,406.449,0.031,0.0524,0.0021,139.999,45.000,34264.71757,1.95281,406.705,33.360,45.068,45.000,0.00,0.09,-272.70,-272.75,-6,976,-0,20.4,1.8,-31.7,20.7,1.8,-31.2,5.73,2.00,-21.7,26.9
2015-03-02 01:04:00,0.0,1.95245,0.00043,406.460,0.030,0.0529,0.0018,140.000,45.000,34264.26397,1.95346,406.718,33.365,45.068,45.000,0.00,0.09,-272.69,-272.75,-2,974,-1,20.4,1.8,-31.6,20.7,1.8,-31.3,5.73,2.00,-21.7,26.9
2015-03-02 01:05:00,0.0,1.95208,0.00040,406.446,0.030,0.0529,0.0019,140.001,45.000,34263.62208,1.95309,406.705,33.373,45.068,45.000,0.00,0.09,-272.70,-272.76,-2,974,-2,20.4,1.8,-31.8,20.7,1.8,-31.3,5.73,2.00,-21.7,26.9
2015-03-02 01:06:00,0.0,1.95254,0.00037,406.462,0.037,0.0522,0.0020,139.998,45.000,34263.09765,1.95355,406.716,33.377,45.068,45.000,0.00,0.09,-272.70,-272.76,-3,973,-2,20.4,1.8,-31.7,20.7,1.8,-31.4,5.73,2.00,-21.7,26.8
2015-03-02 01:07:00,0.0,1.95246,0.00034,406.474,0.027,0.0521,0.0018,140.001,45.000,34264.01862,1.95344,406.728,33.389,45.068,45.000,0.00,0.09,-272.69,-272.75,-3,976,-2,20.4,1.8,-31.8,20.7,1.8,-31.4,5.73,2.00,-21.7,26.8
2015-03-02 01:08:00,0.0,1.95232,0.00043,406.472,0.035,0.0522,0.0015,140.000,45.000,34265.09213,1.95336,406.727,33.399,45.068,45.000,0.00,0.09,-272.70,-272.75,-2,974,-2,20.4,1.8,-31.8,20.7,1.8,-31.4,5.73,2.01,-21.7,26.9
2015-03-02 01:09:00,0.0,1.95244,0.00043,406.464,0.031,0.0526,0.0020,140.001,45.000,34264.26070,1.95342,406.722,33.414,45.068,45.000,0.00,0.09,-272.70,-272.76,-1,974,-2,20.4,1.8,-31.8,20.7,1.8,-31.4,5.73,2.01,-21.7,26.9
2015-03-02 01:10:00,0.0,1.95298,0.00040,406.467,0.032,0.0526,0.0016,140.003,45.000,34262.92387,1.95402,406.723,33.430,45.068,45.000,0.00,0.09,-272.70,-272.75,-1,976,-1,20.4,1.8,-31.8,20.7,1.8,-31.3,5.73,2.00,-21.7,26.9
2015-03-02 01:11:00,0.0,1.95290,0.00027,406.447,0.026,0.0522,0.0017,140.000,45.000,34265.71720,1.95385,406.704,33.439,45.067,45.000,0.00,0.09,-272.70,-272.75,-2,970,-2,20.4,1.8,-31.8,20.7,1.8,-31.3,5.73,2.01,-21.7,26.9
2015-03-02 01:12:00,0.0,1.95245,0.00041,406.486,0.038,0.0535,0.0021,139.999,45.000,34264.00358,1.95352,406.746,33.438,45.068,45.000,0.00,0.09,-272.70,-272.76,-2,971,-2,20.4,1.8,-31.7,20.7,1.8,-31.3,5.73,2.01,-21.7,26.8
2015-03-02 01:13:00,0.0,1.95251,0.00040,406.496,0.028,0.0534,0.0018,139.999,45.000,34265.15854,1.95353,406.757,33.437,45.068,45.000,0.00,0.09,-272.70,-272.75,-2,971,-2,20.4,1.8,-31.6,20.7,1.8,-31.2,5.73,2.00,-21.7,26.8
2015-03-02 01:14:00,0.0,1.95244,0.00038,406.505,0.037,0.0541,0.0020,140.000,45.000,34265.47396,1.95348,406.770,33.434,45.068,45.000,0.00,0.09,-272.69,-272.75,-2,974,-2,20.4,1.8,-31.6,20.7,1.9,-31.1,5.73,2.00,-21.7,26.8
2015-03-02 01:15:00,0.0,1.95291,0.00040,406.506,0.032,0.0539,0.0013,139.999,45.000,34264.27672,1.95397,406.769,33.438,45.068,45.000,0.00,0.09,-272.70,-272.75,-3,971,-2,20.4,1.8,-31.6,20.7,1.9,-31.1,5.73,2.01,-21.7,26.9
2015-03-02 01:16:00,0.0,1.95288,0.00034,406.485,0.025,0.0541,0.0016,140.001,45.000,34266.09155,1.95389,406.750,33.438,45.068,45.000,0.00,0.09,-272.70,-272.76,-2,979,-2,20.4,1.8,-31.6,20.7,1.9,-31.1,5.73,2.01,-21.6,26.9
2015-03-02 01:17:00,0.0,1.95324,0.00037,406.505,0.032,0.0540,0.0019,140.004,45.000,34265.59981,1.95429,406.767,33.437,45.068,45.000,0.00,0.09,-272.69,-272.75,-2,976,-3,20.4,1.8,-31.6,20.7,1.9,-31.1,5.73,2.00,-21.7,26.9
2015-03-02 01:18:00,0.0,1.95317,0.00040,406.490,0.034,0.0538,0.0018,140.002,45.000,34266.34178,1.95420,406.753,33.437,45.068,45.000,0.00,0.09,-272.70,-272.75,-2,976,-3,20.4,1.8,-31.7,20.7,1.9,-31.1,5.73,2.01,-21.7,26.9
2015-03-02 01:19:00,0.0,1.95309,0.00040,406.493,0.028,0.0537,0.0021,139.998,45.000,34265.40009,1.95412,406.756,33.442,45.068,45.000,0.00,0.09,-272.70,-272.76,-2,974,-2,20.4,1.8,-31.6,20.7,1.9,-31.1,5.73,2.01,-21.6,26.9
2015-03-02 01:20:00,0.0,1.95306,0.00051,406.503,0.032,0.0544,0.0025,139.997,45.000,34263.51504,1.95406,406.768,33.445,45.068,45.000,0.00,0.09,-272.69,-272.76,-2,975,-2,20.4,1.8,-31.7,20.7,1.9,-31.1,5.73,2.00,-21.6,26.8
2015-03-02 01:21:00,0.0,1.95278,0.00044,406.492,0.035,0.0537,0.0014,139.997,45.000,34265.34131,1.95387,406.755,33.457,45.068,45.000,0.00,0.09,-272.70,-272.75,-2,974,-3,20.4,1.8,-31.7,20.7,1.9,-31.1,5.73,2.01,-21.6,26.9
2015-03-02 01:22:00,0.0,1.95282,0.00034,406.473,0.038,0.0535,0.0021,140.000,45.000,34267.65978,1.95384,406.737,33.458,45.068,45.000,0.00,0.09,-272.70,-272.76,-2,973,-2,20.4,1.8,-31.6,20.7,1.9,-31.1,5.73,2.01,-21.6,26.9
2015-03-02 01:23:00,0.0,1.95272,0.00035,406.493,0.029,0.0540,0.0024,139.996,45.000,34264.69105,1.95377,406.755,33.444,45.068,45.000,0.00,0.09,-272.70,-272.76,-2,973,-2,20.4,1.8,-31.6,20.7,1.9,-31.1,5.73,2.01,-21.6,26.9
2015-03-02 01:24:00,0.0,1.95323,0.00037,406.481,0.027,0.0534,0.0021,139.999,45.000,34265.87914,1.95425,406.741,33.438,45.068,45.000,0.00,0.09,-272.70,-272.76,-2,973,-2,20.4,1.8,-31.6,20.7,1.9,-31.1,5.73,2.01,-21.6,26.9
2015-03-02 01:25:00,0.0,1.95267,0.00033,406.477,0.025,0.0533,0.0015,140.004,45.000,34269.90196,1.95370,406.739,33.446,45.068,45.000,0.00,0.09,-272.70,-272.75,-2,973,-2,20.4,1.8,-31.7,20.7,1.8,-31.3,5.73,2.00,-21.6,26.9
2015-03-02 01:26:00,0.0,1.95253,0.00040,406.461,0.030,0.0534,0.0015,139.997,45.000,34269.83276,1.95355,406.721,33.446,45.068,45.000,0.00,0.09,-272.70,-272.76,-2,974,-2,20.4,1.8,-31.6,20.7,1.8,-31.3,5.73,2.01,-21.6,26.9
2015-03-02 01:27:00,0.0,1.95228,0.00049,406.466,0.027,0.0533,0.0018,139.999,45.000,34269.59092,1.95330,406.727,33.484,45.068,45.000,0.00,0.09,-272.70,-272.75,-2,974,-2,20.4,1.8,-31.6,20.7,1.9,-31.1,5.73,2.01,-21.6,26.8
2015-03-02 01:28:00,0.0,1.95265,0.00039,406.478,0.026,0.0535,0.0013,139.999,45.000,34268.63875,1.95369,406.740,33.494,45.068,45.000,0.00,0.09,-272.70,-272.75,-2,973,-2,20.4,1.8,-31.6,20.7,1.9,-31.1,5.73,2.01,-21.6,26.9
2015-03-02 01:29:00,0.0,1.95254,0.00029,406.485,0.038,0.0552,0.0018,139.997,45.000,34268.09285,1.95361,406.754,33.501,45.068,45.000,0.00,0.09,-272.70,-272.75,-2,974,-2,20.4,1.8,-31.4,20.7,1.9,-31.1,5.73,2.01,-21.6,26.9
2015-03-02 01:30:00,0.0,1.95271,0.00038,406.459,0.031,0.0535,0.0019,139.997,45.000,34267.86592,1.95369,406.721,33.510,45.068,45.000,0.00,0.09,-272.70,-272.75,-2,973,-2,20.4,1.8,-31.4,20.7,1.9,-30.9,5.73,2.01,-21.6,26.9
2015-03-02 01:31:00,0.0,1.95266,0.00045,406.474,0.035,0.0550,0.0017,140.000,45.000,34269.74798,1.95373,406.743,33.538,45.068,45.000,0.00,0.09,-272.70,-272.75,-2,973,-2,20.4,1.9,-31.3,20.8,1.9,-31.0,5.73,2.01,-21.6,26.9
2015-03-02 01:32:00,0.0,1.95262,0.00045,406.484,0.022,0.0553,0.0014,140.001,45.000,34269.54121,1.95372,406.753,33.563,45.067,45.000,0.00,0.09,-272.70,-272.76,-2,973,-2,20.4,1.9,-31.3,20.7,1.9,-30.8,5.73,2.00,-21.6,26.9
2015-03-02 01:33:00,0.0,1.95228,0.00037,406.482,0.026,0.0554,0.0023,140.001,45.000,34271.31154,1.95333,406.755,33.563,45.067,45.000,0.00,0.09,-272.70,-272.76,-2,973,-3,20.4,1.9,-31.1,20.7,1.9,-30.8,5.73,2.01,-21.6,26.8
2015-03-02 01:34:00,0.0,1.95224,0.00031,406.478,0.030,0.0564,0.0013,140.000,45.000,34272.34222,1.95332,406.753,33.564,45.067,45.000,0.00,0.09,-272.69,-272.75,-2,973,-2,20.4,1.9,-31.0,20.7,1.9,-30.7,5.73,2.00,-21.6,26.8
2015-03-02 01:35:00,0.0,1.95242,0.00043,406.466,0.029,0.0564,0.0021,140.001,45.000,34273.46397,1.95348,406.741,33.565,45.068,45.000,0.00,0.09,-272.70,-272.75,-2,974,-2,20.4,1.9,-31.0,20.8,1.9,-30.6,5.73,2.01,-21.6,26.9
2015-03-02 01:36:00,0.0,1.95270,0.00019,406.435,0.036,0.0561,0.0016,140.003,45.000,34275.97660,1.95379,406.708,33.564,45.068,45.000,0.00,0.09,-272.70,-272.75,-2,974,-2,20.4,1.9,-31.0,20.8,2.0,-30.5,5.73,2.01,-21.5,26.9
2015-03-02 01:37:00,0.0,1.95262,0.00035,406.450,0.046,0.0570,0.0024,139.999,45.000,34276.23884,1.95370,406.728,33.582,45.068,45.000,0.00,0.09,-272.70,-272.75,-2,973,-2,20.4,1.9,-31.0,20.8,2.0,-30.5,5.73,2.00,-21.6,26.9
2015-03-02 01:38:00,0.0,1.95286,0.00042,406.476,0.029,0.0565,0.0019,140.001,45.000,34274.47440,1.95396,406.753,33.587,45.068,45.000,0.00,0.09,-272.70,-272.75,-2,974,-3,20.4,1.9,-31.0,20.8,1.9,-30.6,5.73,2.01,-21.6,26.9
2015-03-02 01:39:00,0.0,1.95259,0.00035,406.454,0.022,0.0562,0.0012,140.001,45.000,34274.61913,1.95368,406.729,33.621,45.068,45.000,0.00,0.09,-272.70,-272.76,-2,974,-2,20.4,1.9,-31.1,20.8,1.9,-30.6,5.73,2.01,-21.5,26.9
2015-03-02 01:40:00,0.0,1.95217,0.00032,406.434,0.028,0.0559,0.0023,140.002,45.000,34276.48361,1.95326,406.708,33.620,45.068,45.000,0.00,0.09,-272.70,-272.76,-2,974,-2,20.4,1.9,-31.1,20.8,1.9,-30.6,5.73,2.01,-21.5,26.9
2015-03-02 01:41:00,0.0,1.95207,0.00045,406.438,0.029,0.0559,0.0013,140.000,45.000,34275.85836,1.95314,406.711,33.624,45.068,45.000,0.00,0.09,-272.69,-272.75,-2,973,-2,20.4,1.9,-31.2,20.8,1.9,-30.6,5.73,2.00,-21.5,26.9
2015-03-02 01:42:00,0.0,1.95224,0.00042,406.455,0.034,0.0560,0.0019,139.997,45.000,34275.93519,1.95330,406.729,33.619,45.068,45.000,0.00,0.09,-272.70,-272.75,-2,973,-2,20.4,1.9,-31.2,20.8,1.9,-30.6,5.73,2.01,-21.5,26.9
2015-03-02 01:43:00,0.0,1.95221,0.00033,406.447,0.035,0.0555,0.0015,140.001,45.000,34277.92981,1.95331,406.717,33.619,45.068,45.000,0.00,0.09,-272.70,-272.76,-2,974,-2,20.4,1.9,-31.2,20.8,1.9,-30.6,5.73,2.01,-21.5,27.0
2015-03-02 01:44:00,0.0,1.95202,0.00033,406.425,0.036,0.0561,0.0017,140.002,45.000,34276.27663,1.95308,406.700,33.609,45.068,45.000,0.00,0.09,-272.70,-272.75,-2,973,-2,20.5,1.9,-31.2,20.8,1.9,-30.8,5.73,2.00,-21.5,27.0
2015-03-02 01:45:00,0.0,1.95193,0.00040,406.426,0.029,0.0559,0.0017,140.002,45.000,34277.94587,1.95302,406.698,33.603,45.068,45.000,0.00,0.31,-271.02,-272.62,-2,973,-2,20.5,1.9,-31.2,20.8,1.9,-30.8,5.43,2.22,-23.2,27.0
2015-03-02 01:46:00,0.0,1.95202,0.00026,406.433,0.022,0.0560,0.0016,140.000,45.000,34276.18799,1.95308,406.707,33.579,45.068,45.000,0.00,0.09,-272.70,-272.76,-2,973,-2,20.5,1.9,-31.3,20.8,1.9,-30.8,5.73,2.00,-21.5,26.9